SIC0126 LIME-EDFH

Flight info

Callsign SIC0126
Flight time 0h 57m
Altitude 34000
Route DILEB DCT ABREG DCT LADOL T163 KOVAN/N0397F240 T163 ETASA Z724 KETEG Z3 VATAK T840 EGAKA Z123 NOKDI Z104 OLGIL OLGIL4K
Aircraft A21N/M-SDE2E3FGHIRWXY/LB1

Departure

Time 2026-05-08 18:44
Airport Il Caravaggio International Airport (LIME)

Arrival

Time 2026-05-08 19:41
Airport Frankfurt-Hahn Airport (EDFH)
Time Latitude Longitude Altitude Speed Heading
2026-05-08 18:18 45.66686 9.69801 793 ft 0 kts 195°
2026-05-08 18:32 45.66697 9.69805 793 ft 4 kts 194°
2026-05-08 18:32 45.66724 9.69815 793 ft 4 kts 193°
2026-05-08 18:32 45.66745 9.69822 793 ft 4 kts 187°
2026-05-08 18:32 45.66768 9.69818 793 ft 4 kts 142°
2026-05-08 18:33 45.66783 9.69788 793 ft 4 kts 108°
2026-05-08 18:33 45.66785 9.69779 793 ft 1 kts 105°
2026-05-08 18:38 45.66783 9.69788 793 ft 3 kts 105°
2026-05-08 18:38 45.66773 9.69844 793 ft 8 kts 105°
2026-05-08 18:38 45.66753 9.69949 793 ft 13 kts 105°
2026-05-08 18:38 45.66724 9.70102 793 ft 18 kts 105°
2026-05-08 18:39 45.66689 9.70289 793 ft 20 kts 105°
2026-05-08 18:39 45.66653 9.70487 793 ft 21 kts 104°
2026-05-08 18:39 45.66614 9.70696 793 ft 22 kts 104°
2026-05-08 18:39 45.66574 9.70915 793 ft 23 kts 105°
2026-05-08 18:40 45.66523 9.71140 793 ft 24 kts 111°
2026-05-08 18:40 45.66474 9.71369 793 ft 24 kts 105°
2026-05-08 18:40 45.66438 9.71579 793 ft 20 kts 90°
2026-05-08 18:40 45.66463 9.71740 793 ft 17 kts 73°
2026-05-08 18:41 45.66464 9.71912 793 ft 18 kts 105°
2026-05-08 18:41 45.66430 9.72091 793 ft 19 kts 104°
2026-05-08 18:41 45.66396 9.72282 793 ft 19 kts 104°
2026-05-08 18:41 45.66373 9.72419 793 ft 10 kts 91°
2026-05-08 18:42 45.66400 9.72491 793 ft 8 kts 22°
2026-05-08 18:42 45.66451 9.72469 793 ft 6 kts 311°
2026-05-08 18:42 45.66460 9.72434 793 ft 0 kts 285°
2026-05-08 18:43 45.66471 9.72381 793 ft 28 kts 285°
2026-05-08 18:43 45.66582 9.71775 793 ft 97 kts 285°
2026-05-08 18:43 45.66804 9.70575 793 ft 148 kts 285°
2026-05-08 18:43 45.67087 9.69044 1092 ft 159 kts 285°
2026-05-08 18:44 45.67180 9.67486 1571 ft 163 kts 254°
2026-05-08 18:44 45.66526 9.66093 1938 ft 178 kts 229°
2026-05-08 18:44 45.65681 9.64739 2492 ft 187 kts 225°
2026-05-08 18:44 45.64751 9.63410 3135 ft 192 kts 226°
2026-05-08 18:45 45.63790 9.62006 3719 ft 204 kts 225°
2026-05-08 18:45 45.62765 9.60517 4319 ft 214 kts 225°
2026-05-08 18:45 45.61710 9.58987 5039 ft 218 kts 225°
2026-05-08 18:45 45.60637 9.57447 5814 ft 219 kts 225°
2026-05-08 18:46 45.59561 9.55912 6590 ft 219 kts 224°
2026-05-08 18:46 45.58401 9.54516 7287 ft 220 kts 207°
2026-05-08 18:46 45.56920 9.54077 7943 ft 221 kts 175°
2026-05-08 18:46 45.55477 9.54793 8586 ft 223 kts 145°
2026-05-08 18:47 45.54482 9.56472 9221 ft 226 kts 115°
2026-05-08 18:47 45.54228 9.58674 9855 ft 230 kts 84°
2026-05-08 18:47 45.54814 9.60786 10421 ft 233 kts 54°
2026-05-08 18:47 45.55893 9.62545 10990 ft 237 kts 47°
2026-05-08 18:48 45.57063 9.64331 11347 ft 255 kts 47°
2026-05-08 18:48 45.58306 9.66267 11633 ft 275 kts 47°
2026-05-08 18:48 45.59639 9.68371 11910 ft 296 kts 48°
2026-05-08 18:48 45.61062 9.70626 12172 ft 316 kts 48°
2026-05-08 18:49 45.62638 9.72964 12426 ft 336 kts 40°
2026-05-08 18:49 45.64638 9.74824 12675 ft 354 kts 24°
2026-05-08 18:49 45.67059 9.75773 12924 ft 371 kts
2026-05-08 18:49 45.69672 9.75557 13347 ft 381 kts 348°
2026-05-08 18:50 45.72258 9.74695 14002 ft 385 kts 346°
2026-05-08 18:50 45.74873 9.73774 14603 ft 388 kts 346°
2026-05-08 18:50 45.77506 9.72870 15221 ft 391 kts 346°
2026-05-08 18:50 45.80161 9.71977 15835 ft 394 kts 346°
2026-05-08 18:51 45.82847 9.71082 16456 ft 398 kts 346°
2026-05-08 18:51 45.85555 9.70186 17063 ft 401 kts 346°
2026-05-08 18:51 45.88000 9.69377 17609 ft 404 kts 346°
2026-05-08 18:52 45.88970 9.69056 17830 ft 405 kts 346°
2026-05-08 18:52 45.91733 9.68141 18424 ft 409 kts 346°
2026-05-08 18:52 45.94518 9.67219 18956 ft 412 kts 346°
2026-05-08 18:52 45.97317 9.66290 19494 ft 415 kts 346°
2026-05-08 18:53 46.00138 9.65352 20021 ft 417 kts 345°
2026-05-08 18:53 46.02971 9.64409 20534 ft 420 kts 345°
2026-05-08 18:53 46.05788 9.63473 21037 ft 422 kts 345°
2026-05-08 18:53 46.08664 9.62514 21542 ft 426 kts 345°
2026-05-08 18:54 46.11558 9.61547 22040 ft 428 kts 345°
2026-05-08 18:54 46.14470 9.60576 22532 ft 431 kts 345°
2026-05-08 18:54 46.17404 9.59595 23007 ft 434 kts 345°
2026-05-08 18:54 46.20350 9.58607 23479 ft 436 kts 345°
2026-05-08 18:55 46.26286 9.56623 24290 ft 439 kts 345°
2026-05-08 18:55 46.29270 9.55624 24716 ft 441 kts 344°
2026-05-08 18:55 46.32263 9.54627 25151 ft 443 kts 345°
2026-05-08 18:56 46.35281 9.53689 25598 ft 444 kts 345°
2026-05-08 18:56 46.38301 9.52765 26028 ft 445 kts 345°
2026-05-08 18:56 46.41343 9.51827 26466 ft 446 kts 345°
2026-05-08 18:56 46.44382 9.50883 26867 ft 448 kts 345°
2026-05-08 18:57 46.47424 9.49938 27352 ft 445 kts 345°
2026-05-08 18:57 46.49427 9.49313 27700 ft 443 kts 344°
2026-05-08 18:57 46.53440 9.48061 28446 ft 439 kts 344°
2026-05-08 18:57 46.56415 9.47131 28994 ft 436 kts 344°
2026-05-08 18:58 46.59374 9.46204 29482 ft 435 kts 344°
2026-05-08 18:58 46.62335 9.45273 29915 ft 435 kts 343°
2026-05-08 18:58 46.65287 9.44343 30396 ft 433 kts 344°
2026-05-08 18:58 46.68226 9.43420 30793 ft 432 kts 344°
2026-05-08 18:59 46.71153 9.42500 31154 ft 430 kts 343°
2026-05-08 18:59 46.74069 9.41582 31477 ft 428 kts 343°
2026-05-08 18:59 46.76978 9.40662 31739 ft 427 kts 343°
2026-05-08 18:59 46.79876 9.39746 32057 ft 426 kts 343°
2026-05-08 19:00 46.81793 9.39138 32240 ft 425 kts 342°
2026-05-08 19:00 46.85651 9.37917 32604 ft 421 kts 342°
2026-05-08 19:00 46.88517 9.37009 32786 ft 422 kts 342°
2026-05-08 19:00 46.91389 9.36097 32988 ft 423 kts 342°
2026-05-08 19:01 46.94260 9.35185 33229 ft 422 kts 342°
2026-05-08 19:01 46.97133 9.34271 33490 ft 422 kts 342°
2026-05-08 19:01 47.00001 9.33358 33711 ft 422 kts 342°
2026-05-08 19:01 47.02867 9.32445 33913 ft 422 kts 342°
2026-05-08 19:02 47.05737 9.31529 34061 ft 423 kts 342°
2026-05-08 19:02 47.11506 9.29686 34070 ft 424 kts 342°
2026-05-08 19:03 47.17260 9.27845 34053 ft 423 kts 342°
2026-05-08 19:03 47.22974 9.26010 34061 ft 424 kts 342°
2026-05-08 19:04 47.28760 9.24145 34035 ft 427 kts 342°
2026-05-08 19:04 47.34563 9.22276 34028 ft 427 kts 342°
2026-05-08 19:05 47.40365 9.20403 34022 ft 426 kts 342°
2026-05-08 19:05 47.46171 9.18521 34027 ft 427 kts 342°
2026-05-08 19:06 47.51977 9.16635 34023 ft 427 kts 341°
2026-05-08 19:06 47.57784 9.14745 34024 ft 427 kts 342°
2026-05-08 19:07 47.63592 9.12855 34025 ft 427 kts 341°
2026-05-08 19:07 47.68431 9.11270 34035 ft 431 kts 342°
2026-05-08 19:08 47.74306 9.09343 34031 ft 433 kts 342°
2026-05-08 19:08 47.80181 9.07417 34029 ft 433 kts 342°
2026-05-08 19:09 47.86199 9.06355 34038 ft 442 kts 355°
2026-05-08 19:09 47.92383 9.06637 34044 ft 446 kts 356°
2026-05-08 19:10 47.98541 9.06874 34040 ft 446 kts 355°
2026-05-08 19:10 48.04752 9.07074 34049 ft 446 kts 355°
2026-05-08 19:11 48.10960 9.07262 34062 ft 448 kts 356°
2026-05-08 19:11 48.17209 9.07465 34058 ft 449 kts 356°
2026-05-08 19:12 48.23467 9.07665 34057 ft 449 kts 356°
2026-05-08 19:12 48.29720 9.07869 34076 ft 449 kts 356°
2026-05-08 19:13 48.35972 9.08080 34062 ft 450 kts 357°
2026-05-08 19:13 48.42239 9.08284 34064 ft 450 kts 357°
2026-05-08 19:14 48.48496 9.08486 34074 ft 450 kts 356°
2026-05-08 19:14 48.54765 9.08692 33957 ft 450 kts 357°
2026-05-08 19:14 48.57894 9.08797 33753 ft 450 kts 357°
2026-05-08 19:15 48.61023 9.08899 33501 ft 449 kts 357°
2026-05-08 19:15 48.64148 9.09003 33240 ft 450 kts 357°
2026-05-08 19:15 48.67279 9.09106 32974 ft 450 kts 357°
2026-05-08 19:15 48.70406 9.09207 32714 ft 449 kts 357°
2026-05-08 19:16 48.73526 9.09306 32463 ft 450 kts 358°
2026-05-08 19:16 48.76660 9.09409 32199 ft 450 kts 358°
2026-05-08 19:16 48.79788 9.09513 31944 ft 450 kts 358°
2026-05-08 19:16 48.82915 9.09617 31691 ft 449 kts 358°
2026-05-08 19:17 48.86045 9.09722 31430 ft 450 kts 358°
2026-05-08 19:17 48.89167 9.09827 31177 ft 450 kts 358°
2026-05-08 19:17 48.92258 9.09848 30927 ft 448 kts 352°
2026-05-08 19:17 48.95273 9.08874 30685 ft 442 kts 336°
2026-05-08 19:18 48.97967 9.06700 30435 ft 438 kts 321°
2026-05-08 19:18 49.00201 9.03593 30201 ft 434 kts 308°
2026-05-08 19:18 49.02142 9.00062 30056 ft 435 kts 306°
2026-05-08 19:19 49.06004 8.92959 30059 ft 436 kts 307°
2026-05-08 19:19 49.09917 8.85871 30077 ft 437 kts 307°
2026-05-08 19:20 49.13838 8.78812 30095 ft 435 kts 307°
2026-05-08 19:20 49.17736 8.71748 30086 ft 435 kts 307°
2026-05-08 19:21 49.21638 8.64671 30082 ft 436 kts 307°
2026-05-08 19:21 49.23585 8.61133 29626 ft 435 kts 308°
2026-05-08 19:21 49.25544 8.57596 29284 ft 436 kts 308°
2026-05-08 19:21 49.27503 8.54040 28983 ft 437 kts 307°
2026-05-08 19:22 49.29462 8.50474 28705 ft 438 kts 307°
2026-05-08 19:22 49.31424 8.46891 28442 ft 439 kts 307°
2026-05-08 19:22 49.33384 8.43306 28185 ft 439 kts 307°
2026-05-08 19:22 49.35341 8.39718 27523 ft 437 kts 307°
2026-05-08 19:23 49.37289 8.36140 26688 ft 437 kts 307°
2026-05-08 19:23 49.39235 8.32562 25918 ft 436 kts 308°
2026-05-08 19:23 49.41173 8.28997 25223 ft 433 kts 308°
2026-05-08 19:23 49.43091 8.25458 24524 ft 429 kts 308°
2026-05-08 19:24 49.44994 8.21944 23824 ft 427 kts 308°
2026-05-08 19:24 49.46883 8.18450 23043 ft 424 kts 308°
2026-05-08 19:24 49.48760 8.14978 22278 ft 420 kts 308°
2026-05-08 19:24 49.50623 8.11528 21493 ft 417 kts 308°
2026-05-08 19:25 49.52472 8.08095 20658 ft 414 kts 308°
2026-05-08 19:25 49.54285 8.04728 20266 ft 405 kts 308°
2026-05-08 19:25 49.56080 8.01389 20123 ft 404 kts 308°
2026-05-08 19:25 49.57874 7.98046 20089 ft 404 kts 308°
2026-05-08 19:26 49.59662 7.94708 20095 ft 404 kts 308°
2026-05-08 19:26 49.61447 7.91374 20038 ft 401 kts 308°
2026-05-08 19:26 49.63215 7.88070 19162 ft 401 kts 308°
2026-05-08 19:26 49.64971 7.84688 18068 ft 405 kts 303°
2026-05-08 19:27 49.66270 7.80834 16897 ft 407 kts 289°
2026-05-08 19:27 49.66919 7.76574 15791 ft 409 kts 277°
2026-05-08 19:27 49.67233 7.72202 14814 ft 410 kts 274°
2026-05-08 19:27 49.67466 7.67837 14094 ft 406 kts 273°
2026-05-08 19:28 49.67662 7.63573 13336 ft 402 kts 272°
2026-05-08 19:28 49.67849 7.59228 12513 ft 399 kts 273°
2026-05-08 19:28 49.68048 7.55043 11784 ft 392 kts 273°
2026-05-08 19:28 49.68251 7.50889 11234 ft 382 kts 273°
2026-05-08 19:29 49.68450 7.46868 10767 ft 370 kts 273°
2026-05-08 19:29 49.68644 7.42974 10454 ft 356 kts 273°
2026-05-08 19:29 49.68830 7.39258 10334 ft 337 kts 273°
2026-05-08 19:29 49.69009 7.35759 10249 ft 318 kts 273°
2026-05-08 19:30 49.69182 7.32438 10171 ft 301 kts 273°
2026-05-08 19:30 49.69348 7.29315 10074 ft 285 kts 273°
2026-05-08 19:30 49.69510 7.26307 9641 ft 278 kts 273°
2026-05-08 19:30 49.69667 7.23331 9021 ft 278 kts 273°
2026-05-08 19:31 49.69818 7.20349 8367 ft 279 kts 273°
2026-05-08 19:31 49.69961 7.17364 7738 ft 279 kts 273°
2026-05-08 19:31 49.70098 7.14393 7194 ft 275 kts 273°
2026-05-08 19:31 49.70236 7.11475 6759 ft 269 kts 273°
2026-05-08 19:32 49.70363 7.08623 6302 ft 266 kts 273°
2026-05-08 19:32 49.70484 7.05761 5806 ft 267 kts 273°
2026-05-08 19:32 49.70601 7.02905 5362 ft 267 kts 273°
2026-05-08 19:32 49.70709 7.00082 5146 ft 257 kts 273°
2026-05-08 19:33 49.70807 6.97385 5029 ft 248 kts 273°
2026-05-08 19:33 49.70901 6.94716 4968 ft 250 kts 273°
2026-05-08 19:33 49.70999 6.92029 4972 ft 251 kts 276°
2026-05-08 19:33 49.71545 6.89554 4960 ft 238 kts 305°
2026-05-08 19:34 49.72692 6.87954 4949 ft 212 kts 338°
2026-05-08 19:34 49.74095 6.87488 4970 ft 206 kts
2026-05-08 19:34 49.75456 6.88001 4988 ft 202 kts 35°
2026-05-08 19:34 49.76384 6.89581 4993 ft 200 kts 66°
2026-05-08 19:35 49.76874 6.91620 5001 ft 203 kts 72°
2026-05-08 19:35 49.77294 6.93699 4999 ft 203 kts 73°
2026-05-08 19:35 49.77707 6.95774 4998 ft 201 kts 73°
2026-05-08 19:35 49.78120 6.97851 5000 ft 202 kts 73°
2026-05-08 19:36 49.78533 6.99942 4999 ft 203 kts 73°
2026-05-08 19:36 49.78946 7.02024 5000 ft 202 kts 73°
2026-05-08 19:36 49.79225 7.04146 4995 ft 202 kts 81°
2026-05-08 19:36 49.79424 7.06302 4995 ft 202 kts 82°
2026-05-08 19:37 49.79616 7.08465 4999 ft 203 kts 82°
2026-05-08 19:37 49.79863 7.10602 4919 ft 199 kts 67°
2026-05-08 19:37 49.80631 7.12290 4680 ft 188 kts 43°
2026-05-08 19:37 49.81676 7.13492 4499 ft 188 kts 32°
2026-05-08 19:38 49.82781 7.14516 4244 ft 187 kts 34°
2026-05-08 19:38 49.83891 7.15593 3962 ft 185 kts 34°
2026-05-08 19:38 49.84978 7.16658 3721 ft 185 kts 34°
2026-05-08 19:38 49.86052 7.17713 3451 ft 181 kts 34°
2026-05-08 19:39 49.87096 7.18738 3170 ft 174 kts 35°
2026-05-08 19:39 49.88067 7.19694 2939 ft 159 kts 35°
2026-05-08 19:39 49.88944 7.20556 2711 ft 138 kts 36°
2026-05-08 19:39 49.89746 7.21346 2526 ft 134 kts 36°
2026-05-08 19:40 49.90519 7.22108 2357 ft 134 kts 36°
2026-05-08 19:40 49.91316 7.22893 2168 ft 135 kts 35°
2026-05-08 19:40 49.92112 7.23679 1979 ft 135 kts 34°
2026-05-08 19:40 49.92897 7.24456 1737 ft 134 kts 33°
2026-05-08 19:41 49.93684 7.25220 1650 ft 127 kts 33°
2026-05-08 19:41 49.94321 7.25850 1635 ft 83 kts 32°
2026-05-08 19:41 49.94667 7.26194 1626 ft 41 kts 31°
2026-05-08 19:41 49.94907 7.26426 1623 ft 40 kts 32°
2026-05-08 19:42 49.95096 7.26610 1619 ft 7 kts 32°
2026-05-08 19:42 49.95113 7.26677 1623 ft 8 kts 104°
2026-05-08 19:42 49.95064 7.26727 1622 ft 10 kts 176°
2026-05-08 19:42 49.94984 7.26733 1622 ft 7 kts 178°
2026-05-08 19:43 49.94946 7.26762 1624 ft 8 kts 130°
2026-05-08 19:43 49.94914 7.26839 1623 ft 6 kts 124°
2026-05-08 19:43 49.94878 7.26863 1622 ft 7 kts 181°
2026-05-08 19:43 49.94827 7.26828 1624 ft 9 kts 215°
2026-05-08 19:44 49.94777 7.26782 1626 ft 5 kts 211°
2026-05-08 19:44 49.94743 7.26750 1624 ft 6 kts 201°
2026-05-08 19:44 49.94711 7.26778 1623 ft 4 kts 110°
2026-05-08 19:44 49.94717 7.26805 1622 ft 3 kts 52°
2026-05-08 19:45 49.94729 7.26820 1627 ft 3 kts 34°
2026-05-08 19:45 49.94739 7.26831 1622 ft 1 kts 33°
2026-05-08 19:45 49.94741 7.26833 1623 ft 0 kts 33°